FW3788 Weather Reports


Display with metric or nautical units.
time (UTC)temp
F
wind
direction
speed
MPH
gust
MPH
rain 1hr
in
rain 24hr
in
rain mn
in
humidity
%
barometer
mb
20260903000017 74 304 0.0 5.0 0.00 0.00 0.00 36 1013.4
20260902235517 74 298 1.0 5.0 0.00 0.00 0.00 36 1013.4
20260902235017 75 340 0.0 1.0 0.00 0.00 0.00 36 1013.4
20260902234522 75 340 0.0 0.0 0.00 0.00 0.00 35 1013.5
20260902234016 76 340 0.0 0.0 0.00 0.00 0.00 34 1013.5
20260902233516 76 340 0.0 4.0 0.00 0.00 0.00 34 1013.6
20260902233017 76 339 1.0 8.0 0.00 0.00 0.00 33 1013.6
20260902232519 76 297 3.0 8.0 0.00 0.00 0.00 34 1013.6
20260902232016 76 303 0.0 7.0 0.00 0.00 0.00 34 1013.7
20260902231523 76 317 1.0 7.0 0.00 0.00 0.00 34 1013.7
20260902231016 76 326 0.0 8.0 0.00 0.00 0.00 35 1013.7
20260902230516 75 324 3.0 10.0 0.00 0.00 0.00 35 1013.8
20260902230016 75 335 1.0 10.0 0.00 0.00 0.00 36 1013.8
20260902225516 75 283 3.0 7.0 0.00 0.00 0.00 35 1013.8
20260902225017 75 319 0.0 9.0 0.00 0.00 0.00 36 1014.1
20260902224529 74 340 4.0 9.0 0.00 0.00 0.00 36 1014.1
20260902224024 74 299 2.0 9.0 0.00 0.00 0.00 38 1014.2
20260902223516 75 304 3.0 9.0 0.00 0.00 0.00 36 1014.2
20260902223017 75 294 0.0 7.0 0.00 0.00 0.00 36 1014.2
20260902222517 74 306 0.0 8.0 0.00 0.00 0.00 37 1014.2
20260902222018 73 298 2.0 9.0 0.00 0.00 0.00 39 1014.3
20260902221521 73 310 3.0 9.0 0.00 0.00 0.00 38 1014.3
20260902221017 74 295 2.0 9.0 0.00 0.00 0.00 37 1014.3
20260902220516 74 297 0.0 7.0 0.00 0.00 0.00 36 1014.4
20260902220040 74 294 1.0 10.0 0.00 0.00 0.00 36 1014.4
20260902215516 74 261 1.0 13.0 0.00 0.00 0.00 36 1014.5
20260902215016 75 289 1.0 13.0 0.00 0.00 0.00 35 1014.5
20260902214517 75 296 1.0 10.0 0.00 0.00 0.00 34 1014.5
20260902214016 76 170 0.0 15.0 0.00 0.00 0.00 30 1014.6
20260902213517 75 165 2.0 15.0 0.00 0.00 0.00 29 1014.7
20260902213017 76 174 0.0 8.0 0.00 0.00 0.00 28 1014.6
20260902212518 75 174 0.0 14.0 0.00 0.00 0.00 29 1014.7
20260902212016 74 151 2.0 13.0 0.00 0.00 0.00 30 1014.8
20260902211516 75 188 2.0 14.0 0.00 0.00 0.00 30 1014.9
20260902211117 75 160 8.0 14.0 0.00 0.00 0.00 29 1015.0
20260902210516 74 179 3.0 12.0 0.00 0.00 0.00 29 1014.9
20260902210021 76 163 6.0 12.0 0.00 0.00 0.00 28 1014.8
20260902205516 76 166 3.0 11.0 0.00 0.00 0.00 28 1014.9
20260902205016 75 204 2.0 11.0 0.00 0.00 0.00 29 1014.9
20260902204523 74 334 0.0 14.0 0.00 0.00 0.00 28 1015.0
20260902204016 74 192 4.0 14.0 0.00 0.00 0.00 29 1015.1
20260902203516 74 184 4.0 15.0 0.00 0.00 0.00 27 1015.0
20260902203016 74 166 8.0 15.0 0.00 0.00 0.00 28 1015.0
20260902202618 75 171 6.0 16.0 0.00 0.00 0.00 28 1015.0
20260902202017 73 186 7.0 16.0 0.00 0.00 0.00 28 1015.0
20260902201534 73 181 4.0 15.0 0.00 0.00 0.00 28 1015.1
20260902201016 72 201 5.0 15.0 0.00 0.00 0.00 30 1015.1
20260902200517 73 184 5.0 10.0 0.00 0.00 0.00 29 1015.2
20260902200017 73 150 3.0 9.0 0.00 0.00 0.00 28 1015.2
20260902195517 74 178 1.0 8.0 0.00 0.00 0.00 29 1015.1
20260902195018 73 321 2.0 7.0 0.00 0.00 0.00 31 1015.2
20260902194528 72 295 0.0 7.0 0.00 0.00 0.00 34 1015.1
20260902194016 73 293 1.0 5.0 0.00 0.00 0.00 33 1015.3
20260902193517 73 291 0.0 9.0 0.00 0.00 0.00 32 1015.3
20260902193117 73 289 1.0 9.0 0.00 0.00 0.00 34 1015.3
20260902192517 71 335 1.0 7.0 0.00 0.00 0.00 36 1015.4
20260902192016 71 359 1.0 7.0 0.00 0.00 0.00 35 1015.4
20260902191519 71 100 0.0 8.0 0.00 0.00 0.00 36 1015.5
20260902191019 71 15 5.0 8.0 0.00 0.00 0.00 36 1015.5
20260902190517 71 186 1.0 5.0 0.00 0.00 0.00 36 1015.6
20260902190017 71 291 0.0 5.0 0.00 0.00 0.00 39 1015.6
20260902185517 70 297 2.0 8.0 0.00 0.00 0.00 39 1015.7
20260902185016 70 294 1.0 9.0 0.00 0.00 0.00 40 1015.7
20260902184519 70 315 2.0 7.0 0.00 0.00 0.00 39 1015.8
20260902184017 70 310 1.0 6.0 0.00 0.00 0.00 40 1015.8
20260902183517 70 287 0.0 11.0 0.00 0.00 0.00 41 1015.9
20260902183024 69 314 4.0 11.0 0.00 0.00 0.00 41 1016.0
20260902182517 69 303 1.0 10.0 0.00 0.00 0.00 41 1016.0
20260902182017 69 295 3.0 9.0 0.00 0.00 0.00 42 1016.0
20260902181517 68 292 4.0 9.0 0.00 0.00 0.00 44 1016.0
20260902181016 68 328 3.0 12.0 0.00 0.00 0.00 44 1016.1
20260902180516 68 280 3.0 12.0 0.00 0.00 0.00 44 1016.1
20260902180016 68 289 4.0 9.0 0.00 0.00 0.00 44 1016.2
20260902175518 68 306 2.0 8.0 0.00 0.00 0.00 44 1016.2
20260902175018 68 299 1.0 6.0 0.00 0.00 0.00 43 1016.2
20260902174520 68 309 1.0 5.0 0.00 0.00 0.00 44 1016.2
20260902174019 67 314 0.0 5.0 0.00 0.00 0.00 44 1016.1
20260902173519 67 316 0.0 4.0 0.00 0.00 0.00 46 1016.1
20260902173022 66 318 1.0 7.0 0.00 0.00 0.00 47 1016.2
20260902172521 65 326 4.0 8.0 0.00 0.00 0.00 47 1016.2
20260902172017 66 308 3.0 7.0 0.00 0.00 0.00 47 1016.2
20260902171517 66 320 1.0 6.0 0.00 0.00 0.00 47 1016.3
20260902171017 65 324 4.0 8.0 0.00 0.00 0.00 47 1016.4
20260902170520 65 320 2.0 8.0 0.00 0.00 0.00 48 1016.3
20260902170117 64 313 3.0 7.0 0.00 0.00 0.00 49 1016.3
20260902165517 64 308 3.0 7.0 0.00 0.00 0.00 49 1016.3
20260902165017 64 235 1.0 5.0 0.00 0.00 0.00 49 1016.3
20260902164517 63 231 3.0 5.0 0.00 0.00 0.00 50 1016.3
20260902164017 63 229 0.0 4.0 0.00 0.00 0.00 51 1016.3
20260902163517 62 228 0.0 4.0 0.00 0.00 0.00 52 1016.3
20260902163018 62 228 0.0 0.0 0.00 0.00 0.00 53 1016.4
20260902162516 62 228 0.0 0.0 0.00 0.00 0.00 52 1016.4
20260902162020 62 228 0.0 0.0 0.00 0.00 0.00 54 1016.3
20260902161517 61 228 0.0 5.0 0.00 0.00 0.00 56 1016.4
20260902161017 61 228 0.0 5.0 0.00 0.00 0.00 57 1016.4
20260902160516 60 226 0.0 4.0 0.00 0.00 0.00 58 1016.6
20260902160017 60 225 0.0 4.0 0.00 0.00 0.00 58 1016.6
20260902155518 60 220 0.0 5.0 0.00 0.00 0.00 59 1016.7
20260902155019 59 220 0.0 5.0 0.00 0.00 0.00 61 1016.7
20260902154521 58 206 0.0 0.0 0.00 0.00 0.00 61 1016.8
20260902154017 58 205 0.0 0.0 0.00 0.00 0.00 61 1016.7
20260902153521 57 204 0.0 0.0 0.00 0.00 0.00 61 1016.7
20260902153039 57 204 0.0 0.0 0.00 0.00 0.00 62 1016.6
20260902152518 56 204 0.0 0.0 0.00 0.00 0.00 61 1016.6
20260902152017 55 204 0.0 0.0 0.00 0.00 0.00 61 1016.6
20260902151518 53 204 0.0 0.0 0.00 0.00 0.00 63 1016.6
20260902151019 53 204 0.0 0.0 0.00 0.00 0.00 64 1016.5
20260902150516 52 204 0.0 0.0 0.00 0.00 0.00 65 1016.4
20260902150018 51 204 0.0 0.0 0.00 0.00 0.00 67 1016.3
20260902145517 50 204 0.0 0.0 0.00 0.00 0.00 69 1016.3
20260902145018 49 204 0.0 0.0 0.00 0.00 0.00 70 1016.3
20260902144517 48 204 0.0 0.0 0.00 0.00 0.00 72 1016.2
20260902144017 48 204 0.0 0.0 0.00 0.00 0.00 72 1016.1
20260902143517 48 204 0.0 0.0 0.00 0.00 0.00 74 1015.9
20260902143018 47 204 0.0 0.0 0.00 0.00 0.00 73 1015.9
20260902142517 47 204 0.0 0.0 0.00 0.00 0.00 74 1015.9
20260902142018 46 204 0.0 1.0 0.00 0.00 0.00 75 1015.7
20260902141517 47 204 0.0 2.0 0.00 0.00 0.00 74 1015.8
20260902141017 46 204 1.0 2.0 0.00 0.00 0.00 78 1015.8
20260902140517 45 204 0.0 2.0 0.00 0.00 0.00 77 1015.9
20260902140019 45 204 0.0 2.0 0.00 0.00 0.00 78 1015.8
20260902134016 45 204 0.0 3.0 0.00 0.00 0.00 77 1015.6
20260902133517 45 204 0.0 3.0 0.00 0.00 0.00 77 1015.6
20260902133018 45 204 0.0 0.0 0.00 0.00 0.00 76 1015.5
20260902132520 45 204 0.0 2.0 0.00 0.00 0.00 77 1015.4
20260902132029 45 204 0.0 2.0 0.00 0.00 0.00 77 1015.3
20260902054518 50 208 1.0 5.0 0.00 0.00 0.00 68 1015.2
20260902054017 51 310 1.0 5.0 0.00 0.00 0.00 68 1015.2
20260902053517 51 312 0.0 0.0 0.00 0.00 0.00 69 1015.1
20260902053022 51 312 0.0 0.0 0.00 0.00 0.00 69 1015.1
20260902052517 51 312 0.0 0.0 0.00 0.00 0.00 68 1015.2
20260902052018 51 312 0.0 0.0 0.00 0.00 0.00 69 1015.2
20260902051517 51 312 0.0 0.0 0.00 0.00 0.00 69 1015.2
20260902051118 52 312 0.0 0.0 0.00 0.00 0.00 68 1015.1
20260902050518 52 312 0.0 0.0 0.00 0.00 0.00 68 1015.1
20260902050017 52 312 0.0 0.0 0.00 0.00 0.00 68 1015.1
20260902045518 53 312 0.0 0.0 0.00 0.00 0.00 69 1015.1
20260902045017 53 312 0.0 0.0 0.00 0.00 0.00 68 1015.1
20260902044518 53 312 0.0 0.0 0.00 0.00 0.00 68 1015.0
20260902044018 53 312 0.0 0.0 0.00 0.00 0.00 68 1015.0
20260902043517 54 312 0.0 0.0 0.00 0.00 0.00 68 1014.9
20260902043018 54 312 0.0 0.0 0.00 0.00 0.00 67 1014.8
20260902042518 54 312 0.0 0.0 0.00 0.00 0.00 67 1014.8
20260902042019 55 312 0.0 0.0 0.00 0.00 0.00 66 1014.6
20260902041517 55 312 0.0 0.0 0.00 0.00 0.00 68 1014.6
20260902041020 55 312 0.0 0.0 0.00 0.00 0.00 68 1014.5
20260902040518 55 312 0.0 0.0 0.00 0.00 0.00 68 1014.4
20260902040019 55 312 0.0 5.0 0.00 0.00 0.00 67 1014.3
20260902035617 55 312 0.0 5.0 0.00 0.00 0.00 67 1014.2
20260902035018 56 312 0.0 5.0 0.00 0.00 0.00 67 1014.2
20260902034618 56 312 0.0 0.0 0.00 0.00 0.00 67 1014.1
20260902034020 56 312 0.0 1.0 0.00 0.00 0.00 66 1014.0
20260902033517 56 311 0.0 7.0 0.00 0.00 0.00 66 1013.8
20260902033018 56 311 4.0 7.0 0.00 0.00 0.00 65 1013.7
20260902032518 57 307 1.0 7.0 0.00 0.00 0.00 64 1013.7
20260902032017 57 306 4.0 7.0 0.00 0.00 0.00 64 1013.6
20260902031518 58 302 2.0 5.0 0.00 0.00 0.00 61 1013.5
20260902031018 58 302 2.0 5.0 0.00 0.00 0.00 61 1013.5
20260902030518 58 302 3.0 5.0 0.00 0.00 0.00 60 1013.3
20260902030017 58 302 0.0 6.0 0.00 0.00 0.00 58 1013.3
20260902025518 59 302 3.0 6.0 0.00 0.00 0.00 58 1013.2
20260902025019 59 300 1.0 6.0 0.00 0.00 0.00 56 1013.1
20260902024518 59 299 1.0 5.0 0.00 0.00 0.00 55 1013.1
20260902024017 60 299 0.0 0.0 0.00 0.00 0.00 53 1013.0
20260902023519 61 299 0.0 0.0 0.00 0.00 0.00 52 1012.9
20260902023018 61 299 0.0 3.0 0.00 0.00 0.00 51 1012.9
20260902022519 61 299 0.0 5.0 0.00 0.00 0.00 50 1012.9
20260902022019 62 298 2.0 7.0 0.00 0.00 0.00 50 1012.8
20260902021617 62 298 0.0 7.0 0.00 0.00 0.00 49 1012.8
20260902021018 63 294 0.0 1.0 0.00 0.00 0.00 47 1012.8
20260902020518 64 294 0.0 0.0 0.00 0.00 0.00 46 1012.8
20260902020017 64 294 0.0 5.0 0.00 0.00 0.00 44 1012.7
20260902015517 64 294 0.0 5.0 0.00 0.00 0.00 44 1012.7
20260902015019 65 294 0.0 6.0 0.00 0.00 0.00 43 1012.7
20260902014518 65 291 0.0 6.0 0.00 0.00 0.00 42 1012.6
20260902014022 65 296 1.0 11.0 0.00 0.00 0.00 41 1012.6
20260902013518 66 286 3.0 11.0 0.00 0.00 0.00 40 1012.5
20260902013018 67 283 2.0 9.0 0.00 0.00 0.00 39 1012.5
20260902012521 67 289 0.0 1.0 0.00 0.00 0.00 37 1012.5
20260902012017 67 289 0.0 2.0 0.00 0.00 0.00 37 1012.5
20260902011522 67 289 0.0 9.0 0.00 0.00 0.00 38 1012.4
20260902011018 67 289 1.0 11.0 0.00 0.00 0.00 39 1012.4
20260902010517 67 308 4.0 11.0 0.00 0.00 0.00 39 1012.4
20260902010018 67 302 1.0 14.0 0.00 0.00 0.00 39 1012.4
20260902005518 67 359 5.0 14.0 0.00 0.00 0.00 39 1012.3
20260902005018 67 322 3.0 10.0 0.00 0.00 0.00 38 1012.3
20260902004518 68 294 2.0 10.0 0.00 0.00 0.00 38 1012.4
20260902004018 68 255 2.0 10.0 0.00 0.00 0.00 37 1012.3
20260902003518 69 285 1.0 11.0 0.00 0.00 0.00 37 1012.3
20260902003019 69 278 3.0 11.0 0.00 0.00 0.00 36 1012.3
20260902002518 69 302 2.0 10.0 0.00 0.00 0.00 36 1012.2
20260902002018 70 326 3.0 10.0 0.00 0.00 0.00 36 1012.2
20260902001518 70 296 3.0 12.0 0.00 0.00 0.00 35 1012.0
20260902001018 70 287 6.0 12.0 0.00 0.00 0.00 35 1012.0
20260902000520 71 289 2.0 14.0 0.00 0.00 0.00 34 1012.0